#timestamp,LO_Frequency,Hit,StdDev 
1634486415.1,286047003.2,N
1634486416.0,286047003.2,N
1634486435.8,286047002.6,N
1634486455.6,286047000.0,N
1634486475.5,286046996.9,N
1634486495.3,286046995.4,N
1634486515.2,286046997.3,N
1634486535.9,286047000.9,N
1634486555.7,286047000.1,N
1634486575.6,286047004.3,N
1634486595.4,286047006.2,N
1634486615.2,286047006.1,N
1634486635.1,286047011.9,N
1634486636.0,286047011.9,N
1634486655.8,286047010.4,N
1634486675.7,286047011.9,N
1634486695.5,286047013.8,N
1634486715.3,286047015.7,N
1634486735.2,286047012.8,N
1634486755.0,286047014.0,N
1634486755.9,286047014.0,N
1634486775.7,286047015.2,N
1634486795.6,286047010.9,N
1634486815.4,286047009.9,N
1634486835.3,286047014.2,N
1634486855.1,286047014.1,N
1634486856.0,286047014.1,N
1634486875.8,286047014.6,N
1634486895.7,286047018.3,N
1634486915.5,286047017.5,N
1634486935.3,286047017.3,N
1634486955.2,286047021.3,Y
1634486975.0,286047012.8,P
1634486975.9,286047012.8,P
1634486995.8,286047014.1,P
1634487015.6,286047016.9,Y
1634487035.4,286047002.1,P
1634487055.3,286047004.0,N
1634487075.1,286047007.1,N
1634487095.9,286047006.4,N
1634487115.7,286047005.8,N
1634487135.5,286047003.7,N
1634487155.4,286047005.0,N
1634487175.2,286047001.6,N
1634487195.0,286047002.4,N
1634487195.9,286047002.4,N
1634487215.8,286046999.8,N
1634487235.6,286047004.0,N
1634487255.5,286047005.3,N
1634487275.3,286047003.1,N
1634487295.1,286047002.5,N
1634487315.9,286047001.9,N
1634487335.7,286046998.5,N
1634487355.5,286046999.5,N
1634487375.4,286047002.1,N
1634487395.2,286047002.0,N
1634487415.1,286047002.0,N
1634487416.0,286047002.0,N
1634487435.8,286047000.2,N
1634487455.6,286047000.4,N
1634487475.5,286046999.4,N
1634487495.3,286047000.3,N
1634487515.1,286047000.0,N
1634487535.9,286046999.0,N
1634487555.7,286046995.2,N
1634487575.6,286046994.1,N
1634487595.4,286046991.2,Y
1634487615.2,286046986.2,P
1634487635.1,286046985.1,N
1634487636.0,286046985.1,N
1634487655.8,286046979.1,N
1634487675.6,286046982.4,N
1634487695.5,286046983.4,N
1634487715.3,286046981.2,N
1634487735.2,286046982.6,N
1634487755.9,286046978.9,Y
1634487775.7,286046999.4,P
1634487795.6,286047001.1,N
1634487815.4,286046999.3,N
1634487835.2,286047000.5,N
1634487855.1,286046999.8,N
1634487856.0,286046999.8,N
1634487875.8,286047004.4,N
1634487895.7,286047001.5,N
1634487915.5,286047000.2,N
1634487935.3,286047001.9,N
1634487955.2,286047002.2,N
1634487975.0,286047005.8,N
1634487975.9,286047005.8,N
1634487995.8,286047003.3,N
1634488015.6,286047002.4,N
1634488035.4,286047001.6,N
1634488055.3,286047000.9,N
1634488075.1,286046999.3,N
1634488076.0,286046999.3,N
1634488095.8,286046999.6,N
1634488115.7,286046997.4,N
1634488135.5,286046997.4,N
1634488155.3,286047002.0,N
1634488175.2,286047013.2,Y
1634488195.0,286047014.3,P
1634488195.9,286047014.3,N
1634488215.8,286047021.9,P
1634488235.6,286047029.4,Y
1634488255.4,286047019.9,P
1634488275.3,286047017.7,P
1634488295.1,286047018.5,P
1634488315.9,286047012.6,Y
1634488335.7,286046993.9,P
1634488355.5,286046990.4,N
1634488375.4,286046994.3,N
1634488395.2,286046994.7,N
1634488415.0,286046991.9,N
1634488415.9,286046991.9,N
1634488435.8,286046991.3,N
1634488455.6,286046991.1,N
1634488475.5,286046988.7,N
1634488495.3,286046989.5,N
1634488515.1,286046985.5,N
1634488535.9,286046985.5,N
1634488555.7,286046986.0,N
1634488575.5,286046987.1,N
1634488595.4,286046993.2,N
1634488615.2,286046995.0,N
1634488635.1,286046994.7,N
1634488636.0,286046994.7,N
1634488655.8,286046996.1,N
1634488675.6,286046995.9,N
1634488695.5,286047000.4,N
1634488715.3,286047001.7,N
1634488735.2,286047002.0,N
1634488755.0,286047000.1,N
1634488755.9,286047000.1,N
1634488775.8,286047001.6,N
1634488795.6,286047002.9,N
1634488815.0,286047004.7,N
1634488815.9,286047004.7,N
1634488835.8,286047005.8,N
1634488855.6,286047000.9,N
1634488875.5,286046997.9,N
1634488895.3,286046997.0,N
1634488915.1,286047002.2,N
1634488935.9,286047001.9,N
1634488955.7,286047001.5,N
1634488975.6,286047004.3,N
1634488995.4,286047000.8,N
1634489015.2,286046997.0,N
1634489035.1,286047002.4,N
1634489036.0,286047002.4,N
1634489055.8,286047003.9,N
1634489075.6,286047004.2,N
1634489095.5,286047001.6,N
1634489115.3,286047005.5,N
1634489135.2,286047008.1,N
1634489155.9,286047009.8,N
1634489175.7,286047014.0,Y
1634489195.6,286047009.0,P
1634489215.4,286047007.1,N
1634489235.2,286047008.8,N
1634489255.1,286047003.1,N
1634489256.0,286047003.1,N
1634489275.8,286047003.5,N
1634489295.7,286047004.6,N
1634489315.5,286047007.4,N
1634489335.3,286047009.2,Y
1634489355.2,286047002.2,P
1634489375.0,286047003.8,N
1634489375.9,286047003.8,N
1634489395.8,286047005.0,Y
1634489415.6,286047000.8,P
1634489435.4,286047001.0,N
1634489455.3,286046997.1,N
1634489475.1,286046995.5,N
1634489495.8,286046998.0,N
1634489515.7,286046993.3,N
1634489535.5,286046991.5,N
1634489555.4,286046991.6,N
1634489575.2,286046990.3,N
1634489595.0,286046991.7,N
1634489595.9,286046991.7,N
1634489615.8,286046991.0,N
1634489635.6,286046991.9,N
1634489655.5,286046995.0,N
1634489675.3,286046997.6,N
1634489695.1,286046991.7,N
1634489715.9,286046994.2,N
1634489735.7,286046991.0,N
1634489755.5,286046989.8,N
1634489775.4,286046987.0,Y
1634489795.2,286046992.3,P
1634489815.1,286046995.9,P
1634489816.0,286046995.9,N
1634489835.8,286047011.9,Y
1634489855.6,286047004.2,P
1634489875.5,286047005.0,N
1634489895.3,286047007.3,N
1634489915.1,286047009.0,N
1634489935.9,286047009.6,N
1634489955.7,286047006.7,N
1634489975.6,286047009.3,N
1634489995.4,286047005.4,N
